Location: Newark
(55.7167°N, 12.5667°E)
Time: 05:53:39
(UTC+00:00)

N. Korean satellite - Pass Details

Date: 17 December 2019
Orbit: 454 x 507 km, 97.2° (Epoch: 24 January)

Event Time Altitude Azimuth Distance (km) Brightness Sun altitude
Rises 17:22:58 0° 215° (SW) 2,591 10.9 -21.5°
Reaches altitude 10° 17:26:04 10° 244° (WSW) 1,704 10.4 -21.9°
Maximum altitude 17:27:49 13° 273° (W) 1,521 10.1 -22.2°
Drops below altitude 10° 17:29:35 10° 302° (WNW) 1,699 10.0 -22.4°
Sets 17:32:39 0° 331° (NNW) 2,574 10.5 -22.8°
